Regional Weather Roundup

ASCA42 TJSJ 231210

RWRPR

PUERTO RICO/U.S. VIRGIN ISLANDS HOURLY WEATHER ROUNDUP

NATIONAL WEATHER SERVICE SAN JUAN PR

800 AM AST FRI FEB 23 2018

PRZ001>002-007>008-010-231300-

PUERTO RICO

CITY SKY/WX TMP DP RH WIND PRES REMARKS

SAN JUAN LMM MOSUNNY 75 66 73 NE18 30.15R

AGUADILLA MOSUNNY 70 64 83 E13 30.16S

VIZ001>002-231300-

U.S. VIRGIN ISLANDS

CITY SKY/WX TMP DP RH WIND PRES REMARKS

CHARLOTTE AMA MOSUNNY 73 66 78 NE14G25 30.13S

CHRISTIANSTED MOSUNNY 75 66 73 NE16 30.13R

HOURLY WEATHER ROUNDUP FOR THE NEWS MEDIA

CITY SKY/WX TMP DP RH WIND PRES REMARKS

ORLANDO MOCLDY 68 67 96 CALM 30.36R

NEW YORK CLOUDY 36 31 82 NE12 30.65R WCI 28

NEWARK CLOUDY 38 32 79 NE9 30.64S WCI 31

CHICAGO DRIZZLE 40 38 93 S7 30.09F FOG

HARTFORD FAIR 31 31 100 CALM 30.69R

BOSTON MOCLDY 31 28 89 N6 30.70S WCI 25

DALLAS CLOUDY 41 40 96 NE3 30.21F

PHILADELPHIA LGT RAIN 37 35 92 E12 30.61F WCI 29

LOS ANGELES PTCLDY 50 37 61 W15 30.16S

WASHINGTON DC LGT RAIN 40 40 100 E3 30.57R